Flag for U.S.A. Weather past 2 weeks in Temple, Texas, U.S.A.

Now
76 °F

Passing clouds.


Feels Like: 76 °F
Forecast: 74 / 86 °F
Wind: 6 mph from Southeast

Location: Fort Hood AAF Airport

Current Time: Sep 20, 2014 at 12:59:12 AM

Latest Report: Sep 19, 2014 at 11:56 PM


Visibility: 10 mi

Pressure: 29.96 "Hg

Humidity: 88%

Dew point: 72 °F

Location of TempleLocation

Historic Weather in Temple — Graph

°F

Temple temperature yesterday

Maximum temperature yesterday: 88 °F (at 3:56 PM)
Minimum temperature yesterday: 73 °F (at 5:56 AM)
Average temperature yesterday: 79 °F

Past Weeks' High & Low Weather Summary

 TemperatureHumidityPressure
High101 °F (Sep 10, 3:56 PM)97% (Sep 19, 5:56 AM)30.32 "Hg (Sep 19, 5:56 AM)
Low60 °F (Sep 13, 5:56 AM)15% (Sep 14, 5:56 PM)29.78 "Hg (Sep 10, 4:56 PM)
Average81 °F60%30.04 "Hg
* Reported Sep 4 10:56 PM — Sep 19 10:56 PM, Temple, Weather by CustomWeather, © 2014

Note: Actual official high and low records may vary slightly from our data, if they occured in-between our weather recording intervals... More about our weather records

Advertising

Temple weather history for previous 24 hours

 ConditionsComfort  
Time TempWeatherWind HumidityBarometerVisibility
10:56 PM
Sep 19
77 °FClear.5 mph85%29.96 "Hg10 mi
9:56 PM78 °FClear.5 mph82%30.01 "Hg10 mi
8:56 PM80 °FClear.9 mph76%29.98 "Hg10 mi
7:56 PM82 °FBroken clouds.8 mph72%29.96 "Hg10 mi
6:56 PM84 °FSunny.3 mph65%29.90 "Hg10 mi
5:56 PM86 °FSunny.7 mph61%29.96 "Hg10 mi
4:56 PM86 °FScattered clouds.5 mph59%29.95 "Hg10 mi
3:56 PM88 °FPassing clouds.3 mph57%29.90 "Hg10 mi
2:56 PM86 °FScattered clouds.3 mph61%29.92 "Hg10 mi
1:56 PM85 °FScattered clouds.7 mph68%29.94 "Hg10 mi
1:03 PM81 °FCloudy.6 mph79%29.96 "Hg10 mi
12:56 PM81 °FMostly cloudy.3 mph77%29.97 "Hg10 mi
11:56 AM78 °FLow clouds.8 mph84%29.97 "Hg10 mi
10:56 AM76 °FLow clouds.5 mph88%29.97 "Hg10 mi
9:56 AM75 °FLow clouds.5 mph90%29.97 "Hg7 mi
8:56 AM74 °FLow clouds.3 mph91%30.01 "Hg7 mi
7:56 AM74 °FLow clouds.No wind94%29.93 "Hg7 mi
6:56 AM73 °FFog.3 mph97%29.92 "Hg2 mi
5:56 AM73 °FFog.No wind97%29.91 "Hg1 mi
5:03 AM73 °FFog.5 mph94%29.91 "Hg1 mi
3:56 AM75 °FLow clouds.5 mph94%29.92 "Hg9 mi
2:56 AM75 °FLow clouds.No wind94%29.97 "Hg7 mi
1:56 AM75 °FLow clouds.No wind94%29.91 "Hg10 mi
12:56 AM75 °FLow clouds.3 mph94%29.91 "Hg10 mi
Weather by CustomWeather, © 2014

See weather overviewHow to use our weather pages